Simultaneous Nadir Overpasses (SNOs) Predictions

Prediction of SNOs between GOES-16 and FY3D Satellite Orbit:

Table of predicted SNOs for the next 14.0 days since TLE Epoch: 11/2/2019
Index Date Time (GOES-16) GOES-16 Lat,Lon FY3D Lat,Lon Distance(km) Time Diff (sec)
1 11/02/2019 06:36:37 -0.00, -75.19 0.31, -76.53 152.87 80
2 11/03/2019 06:15:03 -0.00, -75.20 -0.75, -71.97 368.52 80
3 11/04/2019 18:36:42 0.00, -75.20 -0.46, -77.20 228.16 80
4 11/05/2019 18:20:26 0.00, -75.20 0.55, -72.62 293.74 80
5 11/07/2019 06:41:59 -0.00, -75.22 0.56, -77.84 297.97 80
6 11/08/2019 06:20:23 0.00, -75.23 -0.44, -73.26 224.30 80
7 11/09/2019 18:42:03 -0.00, -75.24 -0.70, -78.50 371.06 80
8 11/10/2019 18:25:48 -0.00, -75.25 0.31, -73.93 151.60 80
9 11/12/2019 06:47:19 0.00, -75.28 0.87, -79.13 439.18 80
10 11/13/2019 06:25:44 0.01, -75.29 -0.14, -74.55 83.65 80
11 11/15/2019 18:28:29 -0.02, -75.32 0.02, -75.22 12.04 80




NCC Satellite Simultaneous Nadir Overpasses (SNOs) Prediction Service
